W2JV-2 Weather Reports


Display with metric or nautical units.
time (UTC)temp
F
wind
direction
speed
MPH
gust
MPH
rain 1hr
in
rain 24hr
in
rain mn
in
humidity
%
barometer
mb
20260508193504 60 297 2.0 7.0 0.00 0.01 0.01 45 1011.6
20260508192503 61 244 2.0 10.0 0.00 0.01 0.01 40 1011.2
20260508192003 62 231 4.0 9.0 0.00 0.01 0.01 39 1011.1
20260508191503 62 309 2.0 5.0 0.00 0.01 0.01 39 1011.0
20260508191004 63 331 1.0 6.0 0.00 0.01 0.01 38 1011.0
20260508190004 64 304 2.0 8.0 0.00 0.01 0.01 36 1010.9
20260508185505 64 250 3.0 8.0 0.00 0.01 0.01 39 1010.9
20260508185004 63 280 3.0 6.0 0.00 0.01 0.01 38 1010.9
20260508184505 63 251 3.0 6.0 0.00 0.01 0.01 38 1011.0
20260508184003 63 337 3.0 7.0 0.00 0.01 0.01 38 1010.9
20260508183504 63 352 4.0 8.0 0.00 0.01 0.01 36 1010.9
20260508182504 64 242 3.0 7.0 0.00 0.01 0.01 35 1011.0
20260508182003 65 294 3.0 8.0 0.00 0.01 0.01 35 1010.9
20260508181504 65 314 3.0 8.0 0.00 0.01 0.01 34 1010.8
20260508181004 66 321 3.0 9.0 0.00 0.01 0.01 37 1010.8
20260508180503 65 279 3.0 14.0 0.00 0.01 0.01 35 1010.9
20260508180004 65 220 5.0 14.0 0.00 0.01 0.01 37 1010.9
20260508175504 64 247 3.0 12.0 0.00 0.01 0.01 39 1010.8
20260508175003 64 272 3.0 9.0 0.00 0.01 0.01 36 1010.8
20260508174504 64 225 6.0 13.0 0.00 0.01 0.01 36 1010.8
20260508174004 64 334 3.0 7.0 0.00 0.01 0.01 36 1010.9
20260508173504 65 328 2.0 10.0 0.00 0.01 0.01 35 1010.9
20260508173004 65 299 5.0 9.0 0.00 0.01 0.01 36 1010.8
20260508172504 65 207 4.0 7.0 0.00 0.01 0.01 40 1010.8
20260508172004 65 299 2.0 9.0 0.00 0.01 0.01 36 1010.8
20260508171504 64 262 2.0 9.0 0.00 0.01 0.01 36 1011.0
20260508171004 64 224 2.0 8.0 0.00 0.01 0.01 36 1010.9
20260508164503 65 329 3.0 7.0 0.00 0.01 0.01 37 1011.0
20260508164004 65 230 3.0 13.0 0.00 0.01 0.01 35 1011.1
20260508163504 65 317 3.0 7.0 0.00 0.01 0.01 36 1011.3
20260508163004 65 314 1.0 9.0 0.00 0.01 0.01 36 1011.4
20260508162505 64 223 3.0 7.0 0.00 0.01 0.01 39 1011.4
20260508162005 64 263 2.0 8.0 0.00 0.01 0.01 36 1011.5
20260508161503 63 293 3.0 7.0 0.00 0.01 0.01 40 1011.5
20260508161004 63 287 2.0 6.0 0.00 0.01 0.01 37 1011.5
20260508160504 63 238 3.0 7.0 0.00 0.01 0.01 39 1011.6
20260508160003 62 264 2.0 5.0 0.00 0.01 0.01 39 1011.6
20260508155503 62 283 3.0 7.0 0.00 0.01 0.01 39 1011.7
20260508155003 62 252 2.0 7.0 0.00 0.01 0.01 38 1011.7
20260508154004 62 244 2.0 7.0 0.00 0.01 0.01 37 1011.9
20260508153504 61 290 1.0 3.0 0.00 0.01 0.01 40 1011.9
20260508153004 61 312 1.0 3.0 0.00 0.01 0.01 37 1011.8
20260508152503 61 273 2.0 7.0 0.00 0.01 0.01 42 1011.8
20260508152003 61 359 1.0 5.0 0.00 0.01 0.01 41 1011.9
20260508151503 61 228 3.0 8.0 0.00 0.01 0.01 45 1011.9
20260508151003 60 243 3.0 6.0 0.00 0.01 0.01 45 1012.0
20260508150004 59 263 2.0 6.0 0.00 0.01 0.01 44 1012.1
20260508145504 59 308 2.0 7.0 0.00 0.01 0.01 45 1012.0
20260508145002 59 264 3.0 7.0 0.00 0.01 0.01 45 1012.1
20260508144503 59 278 2.0 7.0 0.00 0.01 0.01 49 1012.0
20260508144002 58 331 2.0 5.0 0.00 0.01 0.01 47 1012.1
20260508143502 58 287 2.0 6.0 0.00 0.01 0.01 47 1012.0
20260508143001 58 269 3.0 6.0 0.00 0.01 0.01 49 1012.1
20260508142502 58 248 2.0 7.0 0.00 0.01 0.01 49 1012.0
20260508141503 57 255 1.0 3.0 0.00 0.01 0.01 50 1011.9
20260508140502 57 342 1.0 3.0 0.00 0.01 0.01 51 1011.9
20260508140002 56 4 2.0 5.0 0.00 0.01 0.01 51 1011.9
20260508134002 55 262 1.0 3.0 0.00 0.01 0.01 56 1011.9
20260508133502 54 10 1.0 3.0 0.00 0.01 0.01 57 1011.9
20260508133003 54 40 1.0 5.0 0.00 0.01 0.01 62 1011.9
20260508132502 54 58 1.0 7.0 0.00 0.01 0.01 61 1012.0
20260508132002 54 285 1.0 3.0 0.00 0.01 0.01 63 1012.1
20260508131502 53 254 3.0 7.0 0.00 0.01 0.01 64 1012.2
20260508130504 53 358 3.0 6.0 0.00 0.01 0.01 64 1012.2
20260508124503 52 310 1.0 5.0 0.00 0.01 0.01 65 1012.4
20260508124002 52 319 1.0 3.0 0.00 0.01 0.01 67 1012.4
20260508123502 52 255 0.0 2.0 0.00 0.01 0.01 67 1012.3
20260508122503 51 278 1.0 3.0 0.00 0.01 0.01 69 1012.4
20260508122002 51 322 0.0 2.0 0.00 0.01 0.01 69 1012.3
20260508121503 50 244 1.0 3.0 0.00 0.01 0.01 70 1012.2
20260508121003 50 296 0.0 2.0 0.00 0.01 0.01 70 1012.0
20260508120503 49 351 0.0 3.0 0.00 0.01 0.01 71 1012.0
20260508120003 49 241 0.0 3.0 0.00 0.01 0.01 72 1012.0
20260508115003 49 269 0.0 2.0 0.00 0.01 0.01 73 1012.0
20260508114502 48 17 0.0 1.0 0.00 0.01 0.01 73 1012.0
20260508114002 48 270 0.0 1.0 0.00 0.01 0.01 74 1012.0
20260508113502 48 282 0.0 1.0 0.00 0.01 0.01 74 1012.0
20260508113004 48 310 0.0 1.0 0.00 0.01 0.01 74 1012.0
20260508112002 48 315 0.0 0.0 0.00 0.01 0.01 74 1011.9
20260508111502 48 315 0.0 0.0 0.00 0.01 0.01 74 1011.8
20260508111002 47 317 0.0 0.0 0.00 0.01 0.01 74 1011.9
20260508110502 47 17 0.0 0.0 0.00 0.01 0.01 73 1011.8
20260508105502 47 352 0.0 0.0 0.00 0.01 0.01 73 1011.7
20260508105003 48 352 0.0 0.0 0.00 0.01 0.01 73 1011.6
20260508104502 48 352 0.0 0.0 0.00 0.01 0.01 73 1011.6
20260508103503 48 352 0.0 0.0 0.00 0.01 0.01 73 1011.5
20260508103002 48 352 0.0 0.0 0.00 0.01 0.01 73 1011.4
20260508102503 48 352 0.0 1.0 0.00 0.01 0.01 72 1011.4
20260508102003 48 192 0.0 1.0 0.00 0.01 0.01 72 1011.4
20260508101502 48 192 0.0 0.0 0.00 0.01 0.01 72 1011.2
20260508101003 48 193 0.0 1.0 0.00 0.02 0.01 72 1011.0
20260508100502 48 193 0.0 2.0 0.00 0.02 0.01 72 1011.1
20260508100002 48 193 0.0 2.0 0.00 0.02 0.01 71 1011.2
20260508095502 48 192 0.0 2.0 0.00 0.02 0.01 71 1011.2
20260508095002 48 193 0.0 0.0 0.00 0.02 0.01 71 1011.1
20260508094502 48 192 0.0 1.0 0.00 0.02 0.01 71 1011.1
20260508094002 48 191 0.0 1.0 0.00 0.02 0.01 71 1011.0
20260508093503 48 192 0.0 2.0 0.00 0.03 0.01 71 1010.9
20260508093002 48 194 1.0 3.0 0.00 0.03 0.01 71 1011.0
20260508092503 48 192 0.0 1.0 0.00 0.03 0.01 71 1011.0
20260508092002 48 192 0.0 1.0 0.00 0.04 0.01 71 1010.9
20260508091502 48 192 0.0 1.0 0.00 0.04 0.01 71 1010.9
20260508090502 48 191 0.0 1.0 0.00 0.04 0.01 71 1010.7
20260508090003 48 194 0.0 0.0 0.00 0.04 0.01 71 1010.7
20260508085002 48 194 0.0 0.0 0.00 0.04 0.01 71 1010.7
20260508084502 48 194 0.0 1.0 0.00 0.04 0.01 71 1010.7
20260508084002 48 193 0.0 1.0 0.00 0.04 0.01 70 1010.8
20260508083502 48 194 0.0 1.0 0.00 0.04 0.01 70 1010.7
20260508083002 48 194 0.0 2.0 0.00 0.04 0.01 70 1010.6
20260508082503 48 194 0.0 2.0 0.00 0.04 0.01 71 1010.7
20260508082003 48 194 0.0 2.0 0.00 0.04 0.01 71 1010.7
20260508081502 48 193 0.0 1.0 0.00 0.05 0.01 71 1010.8
20260508081003 48 194 0.0 2.0 0.01 0.05 0.01 70 1010.9
20260508080502 48 193 0.0 2.0 0.01 0.05 0.01 71 1010.9
20260508080002 48 194 0.0 2.0 0.01 0.06 0.01 71 1010.9
20260508075502 48 194 0.0 2.0 0.01 0.06 0.01 71 1011.0
20260508075002 48 193 0.0 3.0 0.01 0.07 0.01 71 1011.0
20260508074502 48 193 1.0 3.0 0.01 0.07 0.01 71 1011.0
20260508074003 48 193 0.0 2.0 0.01 0.07 0.01 71 1011.1
20260508073504 48 193 0.0 2.0 0.01 0.07 0.01 71 1011.1
20260508073004 48 193 0.0 2.0 0.01 0.07 0.01 71 1011.1
20260508072502 48 193 0.0 2.0 0.01 0.07 0.01 71 1011.2
20260508072004 48 192 0.0 3.0 0.01 0.07 0.01 71 1011.3
20260508071502 48 192 1.0 3.0 0.01 0.08 0.01 70 1011.4
20260508071002 48 192 1.0 3.0 0.00 0.09 0.00 70 1011.4
20260508070502 48 191 1.0 3.0 0.00 0.12 0.00 68 1011.5
20260508070002 48 191 0.0 2.0 0.00 0.14 0.00 69 1011.3
20260508065502 48 192 0.0 1.0 0.00 0.16 0.00 70 1011.2
20260508065003 48 192 0.0 2.0 0.00 0.19 0.00 71 1011.0
20260508064502 47 192 0.0 2.0 0.00 0.20 0.00 72 1011.0
20260508064003 47 192 0.0 2.0 0.00 0.22 0.00 73 1010.9
20260508063003 47 189 0.0 0.0 0.00 0.23 0.00 72 1010.3
20260508062503 47 188 0.0 0.0 0.00 0.23 0.00 72 1009.6
20260508062004 47 189 0.0 0.0 0.00 0.24 0.00 72 1009.3
20260508061502 46 188 0.0 0.0 0.00 0.25 0.00 72 1009.3
20260508061002 46 188 0.0 0.0 0.00 0.27 0.00 71 1009.2
20260508060502 46 188 0.0 0.0 0.00 0.28 0.00 71 1009.2
20260508060003 47 188 0.0 0.0 0.00 0.28 0.00 71 1009.3
20260508055502 47 188 0.0 0.0 0.00 0.28 0.00 71 1009.2
20260508055002 47 188 0.0 0.0 0.00 0.28 0.00 71 1009.1
20260508053503 47 188 0.0 0.0 0.00 0.28 0.00 72 1009.1
20260508053003 47 188 0.0 0.0 0.00 0.28 0.00 72 1009.1
20260508052502 47 188 0.0 0.0 0.00 0.28 0.00 71 1009.1
20260508052004 47 177 0.0 0.0 0.00 0.28 0.00 72 1009.1
20260508051504 47 177 0.0 0.0 0.00 0.28 0.00 71 1009.2
20260508050502 47 177 0.0 0.0 0.00 0.28 0.00 71 1009.0
20260508050002 47 177 0.0 0.0 0.00 0.28 0.00 71 1009.1
20260508045503 48 177 0.0 0.0 0.00 0.28 0.00 71 1009.0
20260508045002 48 177 0.0 0.0 0.00 0.28 0.00 70 1009.0
20260508044502 48 177 0.0 0.0 0.00 0.28 0.00 70 1008.9
20260508043502 48 177 0.0 0.0 0.00 0.28 0.00 71 1009.0
20260508042502 49 177 0.0 0.0 0.00 0.29 0.00 71 1009.1
20260508042002 49 177 0.0 0.0 0.00 0.29 0.00 71 1009.2
20260508041502 49 177 0.0 0.0 0.00 0.29 0.00 71 1009.2
20260508041002 49 177 0.0 0.0 0.00 0.29 0.00 71 1009.2
20260508040502 49 177 0.0 0.0 0.00 0.29 0.00 70 1009.2
20260508040002 49 177 0.0 0.0 0.00 0.29 0.00 70 1009.2
20260508035502 50 177 0.0 0.0 0.00 0.29 0.29 70 1009.1
20260508035002 50 177 0.0 1.0 0.00 0.29 0.29 70 1009.0
20260508034502 50 177 0.0 0.0 0.00 0.29 0.29 69 1009.1
20260508034003 50 177 0.0 0.0 0.00 0.29 0.29 69 1009.1
20260508033502 50 177 0.0 0.0 0.00 0.29 0.29 69 1009.1
20260508033003 50 177 0.0 0.0 0.00 0.29 0.29 69 1009.1
20260508032503 50 177 0.0 0.0 0.00 0.29 0.29 69 1009.1
20260508032002 50 177 0.0 0.0 0.00 0.29 0.29 69 1009.1
20260508031502 51 177 0.0 0.0 0.00 0.29 0.29 69 1009.0
20260508031002 51 177 0.0 0.0 0.00 0.29 0.29 69 1009.0
20260508030503 51 177 0.0 0.0 0.00 0.29 0.29 69 1009.0
20260508030002 51 177 0.0 0.0 0.00 0.29 0.29 68 1009.1
20260508025502 51 177 0.0 0.0 0.00 0.29 0.29 68 1009.1
20260508025002 51 177 0.0 0.0 0.00 0.31 0.29 68 1009.0
20260508024503 51 177 0.0 0.0 0.00 0.34 0.29 68 1009.1
20260508024003 51 177 0.0 0.0 0.00 0.36 0.29 68 1009.1
20260508023502 51 177 0.0 0.0 0.00 0.38 0.29 67 1009.1
20260508023002 52 177 0.0 0.0 0.00 0.38 0.29 67 1009.1
20260508022502 52 177 0.0 0.0 0.00 0.38 0.29 67 1009.0
20260508022003 52 177 0.0 0.0 0.00 0.38 0.29 67 1009.0
20260508021003 52 177 0.0 0.0 0.00 0.38 0.29 66 1009.0
20260508020002 52 177 0.0 2.0 0.00 0.38 0.29 65 1009.0
20260508015502 53 177 0.0 0.0 0.00 0.38 0.29 64 1009.0
20260508015003 53 177 0.0 1.0 0.00 0.38 0.29 63 1009.0
20260508013502 53 177 0.0 1.0 0.00 0.38 0.29 61 1009.0
20260508013003 53 182 1.0 3.0 0.00 0.38 0.29 60 1008.9
20260508012502 53 197 0.0 3.0 0.00 0.38 0.29 58 1008.9
20260508011002 54 194 0.0 0.0 0.00 0.38 0.29 56 1008.8
20260508010502 55 191 0.0 0.0 0.00 0.38 0.29 54 1008.6
20260508010002 55 191 0.0 0.0 0.00 0.38 0.29 54 1008.7
20260508005502 55 192 0.0 0.0 0.00 0.38 0.29 55 1008.5
20260508005003 55 191 0.0 0.0 0.00 0.38 0.29 49 1008.4
20260508004503 56 191 0.0 0.0 0.00 0.38 0.29 50 1008.3
20260508004003 56 191 0.0 0.0 0.00 0.38 0.29 50 1008.2
20260508003502 56 191 0.0 0.0 0.00 0.38 0.29 51 1008.2
20260508003002 56 191 0.0 0.0 0.00 0.38 0.29 50 1008.2
20260508002502 57 192 0.0 0.0 0.00 0.38 0.29 50 1008.1
20260508002002 57 192 0.0 0.0 0.00 0.38 0.29 50 1007.9
20260508001503 57 192 0.0 0.0 0.00 0.38 0.29 50 1007.9
20260508001002 58 191 0.0 0.0 0.00 0.38 0.29 48 1008.0
20260508000502 58 190 0.0 0.0 0.00 0.38 0.29 46 1008.0
20260508000002 58 352 0.0 0.0 0.00 0.38 0.29 46 1008.0
20260507235503 58 352 0.0 0.0 0.00 0.38 0.29 44 1007.9
20260507235002 59 352 0.0 0.0 0.00 0.38 0.29 43 1007.7
20260507234502 59 352 0.0 0.0 0.00 0.38 0.29 44 1007.6
20260507234002 59 352 0.0 0.0 0.00 0.38 0.29 43 1007.7
20260507233002 60 352 0.0 0.0 0.00 0.38 0.29 41 1007.6
20260507232503 60 13 1.0 2.0 0.00 0.38 0.29 40 1007.5
20260507231502 60 9 1.0 2.0 0.00 0.38 0.29 40 1007.3
20260507231004 61 351 0.0 3.0 0.00 0.38 0.29 39 1007.2
20260507230503 61 5 1.0 3.0 0.00 0.38 0.29 40 1007.2
20260507230004 61 342 1.0 3.0 0.00 0.38 0.29 39 1007.3
20260507225502 61 291 1.0 3.0 0.00 0.38 0.29 39 1007.3
20260507225003 61 333 1.0 3.0 0.00 0.38 0.29 41 1007.2
20260507224503 61 259 1.0 3.0 0.00 0.38 0.29 40 1007.2
20260507224003 62 291 1.0 3.0 0.00 0.38 0.29 39 1007.2
20260507223502 62 9 1.0 3.0 0.00 0.38 0.29 37 1007.1
20260507223002 62 349 1.0 3.0 0.00 0.38 0.29 37 1007.1
20260507222502 62 17 2.0 3.0 0.00 0.38 0.29 38 1007.1
20260507222004 62 253 1.0 2.0 0.00 0.38 0.29 40 1007.2
20260507221503 62 232 1.0 3.0 0.00 0.38 0.29 37 1007.2
20260507221003 63 262 1.0 3.0 0.00 0.38 0.29 39 1007.2
20260507220502 63 188 0.0 3.0 0.00 0.38 0.29 40 1007.2
20260507220004 64 262 1.0 3.0 0.00 0.38 0.29 37 1007.1
20260507215502 64 292 1.0 5.0 0.00 0.38 0.29 37 1007.2
20260507214502 64 275 2.0 5.0 0.00 0.38 0.29 38 1007.0
20260507214002 63 309 1.0 3.0 0.00 0.38 0.29 39 1007.0
20260507213502 63 233 2.0 5.0 0.00 0.38 0.29 38 1007.0
20260507213003 63 190 2.0 5.0 0.00 0.38 0.29 40 1007.0
20260507212503 63 267 1.0 3.0 0.00 0.38 0.29 37 1006.9
20260507211502 63 267 2.0 5.0 0.00 0.38 0.29 36 1006.9
20260507211003 63 329 1.0 3.0 0.00 0.38 0.29 33 1006.8
20260507210003 64 335 1.0 3.0 0.00 0.38 0.29 35 1006.9
20260507205503 64 209 1.0 3.0 0.00 0.38 0.29 36 1006.9
20260507205002 64 247 2.0 5.0 0.00 0.38 0.29 36 1006.9
20260507204504 64 222 2.0 5.0 0.00 0.38 0.29 36 1006.9
20260507204003 64 257 2.0 5.0 0.00 0.38 0.29 36 1007.0
20260507203503 64 321 1.0 3.0 0.00 0.38 0.29 34 1006.9
20260507203002 65 238 2.0 3.0 0.00 0.38 0.29 36 1007.1
20260507202002 65 349 1.0 3.0 0.00 0.38 0.29 31 1007.1
20260507201502 65 18 3.0 5.0 0.00 0.38 0.29 33 1007.1
20260507201003 65 1 2.0 5.0 0.00 0.38 0.29 34 1007.1
20260507200503 65 12 3.0 9.0 0.00 0.38 0.29 32 1007.1
20260507200003 66 359 1.0 3.0 0.00 0.38 0.29 33 1007.1
20260507195502 66 293 2.0 5.0 0.00 0.38 0.29 34 1007.3
20260507195002 66 255 2.0 5.0 0.00 0.38 0.29 36 1007.4
20260507194502 66 259 2.0 5.0 0.00 0.38 0.29 34 1007.3
20260507194002 65 285 1.0 5.0 0.00 0.38 0.29 33 1007.3